STARLINK-2107, 47723

Orbit data source: Space-Track

STARLINK-2107, 47723 is a payload satellite owned by SpaceX/Seattle (US) in LEO that was launched on Thu, 04 Mar 2021 UTC via an FALCON 9 launch vehicle from the Air Force Eastern Test Range (AFETR). Payload-class satellites include a variety of spacecraft equipped with specific instruments for various scientific and technological missions. These include communications satellites like Starlink; space stations such as the ISS; scientific satellites like the Hubble; Earth observation satellites from companies like Planet Labs, Umbra, and HawkEye 360; GPS; miniature CubeSats for education and research; and military/defense satellites.

Loading next visibility...
Identifier
47723, 2021-017B
Orbit
LEO
Country
Flag of USUS
Related business
Manufacturer
SpaceX/Seattle
Mission
Operational Commercial Communications
Bus & Motor
STARLINK, Unknown motor
Mass
260 kg wet, ~248 kg dry
Launch date (UTC)
2021-03-04 (5 years ago)
Launch vehicle
FALCON 9
Launch site
Air Force Eastern Test Range (AFETR)
Object type
Payload
Rocket body
Debris
Shape & HBR
Box + 1 Pan, 10.1 m
Radar Cross Section
13.562 m², Large (>1 m²)

Expand to show TLE details & history
Last TLE update: 18 hours ago

TLE from 18 hours ago
0 STARLINK-2107
1 47723U 21017B   25346.76055968  .00000947  00000-0  82472-4 0  9997
2 47723  53.0539 161.8605 0001150  72.4647 287.6467 15.06397834265766
Epoch: 2025-12-12T18:15Z
TLE epoch observation values (Epoch: 2025-12-12T18:15:12.356Z)
Latitude
-0.00006°
Longitude
166.36142°
Altitude
547.856 km
Speed
7.589 km/s
True Right ascension
10h 47m 26s
True Declination
0° 00' 00"
Sunlit
Object was in daylight at epoch
Visualization orbit readout
Latitude
Unknown
Longitude
Unknown
Altitude
Unknown
Speed
Unknown
Apparent Right ascension
Unknown
Apparent Declination
Unknown
Sunlit
N/A
Visualization observer readout
Local Sidereal Time
11:03:52
Azimuth
Unknown
Elevation
Unknown
Doppler factor
Unknown
Orbital elements
Apogee altitude
548.285 km
Perigee altitude
546.693 km
Semi-major axis
6,925.626 km
Eccentricity
0.00012
Inclination
53.0539°
RAAN
161.8605°
Arg. of periapsis
72.4647°
True anomaly
287.63414°
Mean anomaly
287.6467°
Eccentric anomaly
287.64042°
Mean motion
3.76578 °/min
Orbital period
95.6 mins
BSTAR
0.000082472
Loading maneuver chart data...
Computing Atmospheric mass density...
Loading historical data...
Loading historical data...
Loading historical data...
Loading historical data...
Loading historical data...
Loading historical data...
Loading historical data...

Documentation

Showing up to 5 results
|